Home   Weather   Budapest   Past weeks
Flag for Hungary

Past Weather in Budapest, Hungary — Yesterday and Last 2 Weeks

Now
54 °F

Cool.


Feels Like: 50 °F
Forecast: 63 / 43 °F
Wind: 13 mph from East

Location: Ferenc Liszt International Airport

Current Time: Apr 6, 2020 at 1:44:17 am

Latest Report: Apr 6, 2020 at 1:00 am


Visibility: N/A

Pressure: 30.36 "Hg

Humidity: 30%

Dew Point: 23 °F

Location of BudapestLocation

Past Weather in Budapest — Graph

°F

Budapest Temperature Yesterday

Maximum temperature yesterday: 64 °F (at 1:30 pm)
Minimum temperature yesterday: 36 °F (at 3:30 am)
Average temperature yesterday: 52 °F

High & Low Weather Summary for the Past Weeks

 TemperatureHumidityPressure
High64 °F (Mar 28, 1:00 pm)93% (Mar 23, 10:30 am)30.39 "Hg (Mar 23, 10:30 am)
Low18 °F (Apr 2, 6:00 am)17% (Mar 22, 2:00 pm)29.80 "Hg (Mar 29, 3:00 pm)
Average42 °F50%30.16 "Hg
* Reported Mar 21 11:00 pm — Apr 6 12:30 am, Budapest. Weather by CustomWeather, © 2020

Note: Actual official high and low records may vary slightly from our data, if they occured in-between our weather recording intervals... More about our weather records

Budapest Weather History for the Previous 24 Hours

Scroll right to see more
 ConditionsComfort  
Time TempWeatherWind HumidityBarometerVisibility
12:30 am
Mon, Apr 6
54 °FCool.12 mph30%30.36 "HgN/A
12:00 am54 °FCool.10 mph33%30.36 "HgN/A
11:30 pm
Sun, Apr 5
54 °FCool.8 mph33%30.36 "HgN/A
11:00 pm54 °FCool.9 mph33%30.36 "HgN/A
10:30 pm54 °FClear.8 mph35%30.36 "Hg10 mi
9:30 pm54 °FClear.7 mph35%30.36 "Hg10 mi
9:00 pm54 °FClear.7 mph38%30.36 "Hg10 mi
8:30 pm54 °FClear.6 mph35%30.36 "Hg10 mi
8:00 pm55 °FClear.6 mph33%30.33 "Hg10 mi
7:30 pm57 °FClear.6 mph31%30.33 "Hg10 mi
7:00 pm61 °FSunny.8 mph29%30.33 "Hg10 mi
6:30 pm63 °FSunny.10 mph25%30.33 "Hg10 mi
6:00 pm63 °FSunny.10 mph27%30.30 "Hg10 mi
5:30 pm64 °FPassing clouds.12 mph26%30.30 "HgN/A
5:00 pm64 °FPassing clouds.12 mph26%30.30 "HgN/A
4:30 pm64 °FPassing clouds.9 mph26%30.30 "HgN/A
4:00 pm64 °FPassing clouds.13 mph28%30.33 "HgN/A
3:30 pm64 °FSunny.13 mph26%30.33 "Hg10 mi
3:00 pm64 °FPassing clouds.13 mph26%30.33 "HgN/A
2:30 pm64 °FPassing clouds.13 mph28%30.33 "HgN/A
2:00 pm64 °FPassing clouds.12 mph28%30.33 "HgN/A
1:30 pm64 °FPassing clouds.13 mph28%30.36 "HgN/A
1:00 pm63 °FPassing clouds.12 mph27%30.36 "HgN/A
12:30 pm61 °FPassing clouds.14 mph29%30.36 "HgN/A
12:00 pm61 °FPassing clouds.12 mph29%30.36 "HgN/A
11:30 am59 °FPassing clouds.13 mph31%30.36 "HgN/A
11:00 am57 °FPassing clouds.14 mph31%30.36 "HgN/A
10:30 am57 °FPassing clouds.14 mph31%30.36 "HgN/A
10:00 am55 °FSunny.14 mph33%30.39 "Hg10 mi
9:30 am55 °FSunny.14 mph28%30.36 "Hg10 mi
9:00 am54 °FPassing clouds.10 mph30%30.36 "HgN/A
8:30 am50 °FPassing clouds.6 mph37%30.36 "HgN/A
8:00 am48 °FPassing clouds.6 mph40%30.36 "HgN/A
7:30 am43 °FSunny.5 mph53%30.36 "Hg10 mi
7:00 am39 °FSunny.7 mph56%30.33 "Hg10 mi
6:30 am36 °FSunny.8 mph60%30.33 "Hg10 mi
6:00 am37 °FClear.8 mph56%30.33 "Hg10 mi
5:30 am37 °FClear.8 mph56%30.33 "Hg10 mi
5:00 am37 °FClear.7 mph60%30.33 "Hg10 mi
4:30 am37 °FClear.7 mph60%30.30 "Hg10 mi
4:00 am37 °FClear.7 mph60%30.30 "Hg10 mi
3:30 am36 °FChilly.6 mph65%30.30 "HgN/A
3:00 am39 °FChilly.8 mph56%30.30 "HgN/A
2:30 am37 °FChilly.6 mph60%30.33 "HgN/A
2:00 am41 °FQuite cool.6 mph53%30.33 "HgN/A
1:30 am41 °FQuite cool.7 mph53%30.30 "HgN/A
1:00 am45 °FQuite cool.6 mph46%30.30 "HgN/A
Weather by CustomWeather, © 2020

See weather overview

Advertising